This is the latest recevied weather packets stored in our database for station/object PD2BVG. If no packets are shown the sender has not sent any weather packets the latest 10 day(s).
| Time | Temp. | Humidity | Pressure | Rain* | Wind** | Luminosity | Snow |
|---|---|---|---|---|---|---|---|
| 1788028857 | 18.89° C | 99% | 1005.3 hPa | 3.56 mm | - | 0 W/m² | - |
| 1788028796 | 18.89° C | 99% | 1005.3 hPa | 3.56 mm | - | 0 W/m² | - |
| 1788028736 | 18.89° C | 99% | 1005.3 hPa | 3.56 mm | - | 0 W/m² | - |
| 1788028676 | 18.89° C | 99% | 1005.4 hPa | 3.56 mm | - | 0 W/m² | - |
| 1788028616 | 18.89° C | 99% | 1005.4 hPa | 3.56 mm | - | 0 W/m² | - |
| 1788028556 | 18.89° C | 99% | 1005.4 hPa | 3.56 mm | - | 0 W/m² | - |
| 1788028496 | 18.89° C | 99% | 1005.3 hPa | 3.56 mm | - | 0 W/m² | - |
| 1788028437 | 18.89° C | 99% | 1005.3 hPa | 3.56 mm | - | 0 W/m² | - |
| 1788028375 | 18.89° C | 99% | 1005.1 hPa | 3.56 mm | - | 0 W/m² | - |
| 1788028317 | 18.89° C | 99% | 1005.1 hPa | 3.56 mm | - | 0 W/m² | - |
| 1788028256 | 18.89° C | 99% | 1004.9 hPa | 3.56 mm | - | 0 W/m² | - |
| 1788028195 | 18.89° C | 99% | 1004.8 hPa | 3.3 mm | - | 0 W/m² | - |
| 1788028136 | 18.89° C | 98% | 1004.8 hPa | 3.3 mm | - | 0 W/m² | - |
| 1788028078 | 18.89° C | 98% | 1004.8 hPa | 3.05 mm | - | 0 W/m² | - |
| 1788028018 | 18.89° C | 98% | 1004.7 hPa | 3.05 mm | - | 0 W/m² | - |
| 1788027956 | 18.89° C | 98% | 1004.8 hPa | 3.05 mm | - | 0 W/m² | - |
| 1788027896 | 18.89° C | 98% | 1004.5 hPa | 3.05 mm | - | 0 W/m² | - |
| 1788027836 | 18.89° C | 98% | 1004.2 hPa | 3.05 mm | - | 5 W/m² | - |
| 1788027777 | 18.89° C | 98% | 1004.3 hPa | 2.79 mm | - | 9 W/m² | - |
| 1788027716 | 18.89° C | 98% | 1004.4 hPa | 2.54 mm | - | 11 W/m² | - |
| 1788027657 | 18.89° C | 98% | 1004.6 hPa | 2.54 mm | - | 11 W/m² | - |
| 1788027597 | 18.89° C | 98% | 1004.6 hPa | 2.29 mm | - | 11 W/m² | - |
| 1788027535 | 18.89° C | 98% | 1004.6 hPa | 2.29 mm | - | 11 W/m² | - |
| 1788027475 | 18.89° C | 98% | 1004.7 hPa | 2.29 mm | - | 7 W/m² | - |
| 1788027416 | 18.89° C | 98% | 1004.6 hPa | 2.29 mm | - | 5 W/m² | - |
* Rain latest hour (hover to see other rain measurements)
** Current wind speed in m/s (hover to see current wind gust speed)